Location: S�tio Afonso Gruber
(26.1760°S, 49.5250°W)
Time: 23:52:58
(UTC+00:00)

Cosmos 2016 Rocket - Visible Passes

Search period start: 01 October 2020 00:00
Search period end: 11 October 2020 00:00
Orbit: 946 x 1001 km, 83.0° (Epoch: 01 October)

Date Brightness Start Highest point End Pass type
(mag) Time Alt. Az. Time Alt. Az. Time Alt. Az.
01 Oct 5.1 07:10:45 10° NNE 07:16:33 44° E 07:22:29 10° SSE visible
02 Oct 4.0 07:35:04 10° N 07:41:16 87° E 07:47:37 10° S visible
03 Oct 6.5 06:17:27 10° NE 06:21:21 17° E 06:25:17 10° SE visible
03 Oct 4.2 08:00:11 10° NNW 08:06:08 47° W 08:12:13 10° S visible
04 Oct 5.4 06:40:19 10° NNE 06:45:53 35° E 06:51:32 10° SSE visible
04 Oct 5.0 08:26:15 10° NW 08:31:09 24° WSW 08:36:09 10° SSW visible
05 Oct 4.2 07:04:22 10° N 07:10:32 71° E 07:16:52 10° S visible
06 Oct 6.6 05:47:49 10° ENE 05:50:44 14° E 05:53:40 10° SE visible
06 Oct 4.0 07:29:14 10° NNW 07:35:21 59° W 07:41:38 10° S visible
07 Oct 5.7 06:10:21 11° NE 06:15:12 28° E 06:20:30 10° SSE visible
07 Oct 4.8 07:55:03 10° NW 08:00:19 30° W 08:05:49 10° SSW visible
08 Oct 4.5 06:36:10 25° NNE 06:39:50 57° E 06:46:03 10° SSE visible
08 Oct 5.5 08:22:05 10° WNW 08:25:27 15° WSW 08:28:52 10° SW visible
09 Oct 6.7 05:19:14 10° E 05:20:08 10° E 05:21:02 10° ESE visible
09 Oct 3.9 07:01:48 35° NNW 07:04:36 74° W 07:10:59 10° S visible
10 Oct 6.0 05:42:37 20° ENE 05:44:33 23° E 05:49:21 10° SE visible
10 Oct 4.5 07:27:17 29° WNW 07:29:31 37° W 07:35:22 10° SSW visible
